CEB104 RPLL-RPVP

Flight info

Callsign CEB104
Flight time N/A
Altitude 36000
Route BUCAL4V BUCAL M646 NOMYO NOMYO2W
Aircraft A20N/M-SDE2E3FGHIRWXY/LB1

Departure

Time N/A
Airport Ninoy Aquino International Airport (RPLL)

Arrival

Time 2026-04-22 11:53
Airport Puerto Princesa International Airport / PAF Antonio Bautista Air Base (RPVP)
Time Latitude Longitude Altitude Speed Heading
2026-04-22 11:48 9.75369 118.97649 2585 ft 237 kts 193°
2026-04-22 11:49 9.73926 118.96851 2509 ft 228 kts 227°
2026-04-22 11:49 9.73208 118.95432 2528 ft 215 kts 262°
2026-04-22 11:49 9.73229 118.93969 2586 ft 194 kts 277°
2026-04-22 11:49 9.73392 118.92667 2535 ft 172 kts 277°
2026-04-22 11:50 9.73513 118.91464 2544 ft 163 kts 275°
2026-04-22 11:50 9.73590 118.90315 2448 ft 159 kts 274°
2026-04-22 11:50 9.73645 118.89172 2236 ft 157 kts 273°
2026-04-22 11:50 9.73691 118.88062 2033 ft 156 kts 273°
2026-04-22 11:51 9.73737 118.86943 1830 ft 156 kts 273°
2026-04-22 11:51 9.73783 118.85821 1632 ft 156 kts 273°
2026-04-22 11:51 9.73830 118.84710 1434 ft 155 kts 273°
2026-04-22 11:51 9.73878 118.83594 1235 ft 154 kts 273°
2026-04-22 11:52 9.73925 118.82497 1039 ft 154 kts 273°
2026-04-22 11:52 9.73972 118.81414 845 ft 153 kts 273°
2026-04-22 11:52 9.74019 118.80319 650 ft 152 kts 273°
2026-04-22 11:52 9.74066 118.79236 455 ft 151 kts 273°
2026-04-22 11:53 9.74113 118.78159 263 ft 150 kts 272°
2026-04-22 11:53 9.74159 118.77081 70 ft 150 kts 272°
2026-04-22 11:53 9.74200 118.76150 53 ft 91 kts 272°
2026-04-22 11:53 9.74217 118.75794 60 ft 18 kts 285°
2026-04-22 11:54 9.74239 118.75787 60 ft 0 kts 24°
2026-04-22 11:54 9.74251 118.75791 60 ft 14 kts 18°
2026-04-22 11:55 9.73966 118.81526 867 ft 152 kts 273°
2026-04-22 11:55 9.74013 118.80450 672 ft 151 kts 273°
2026-04-22 11:55 9.74060 118.79369 479 ft 151 kts 272°
2026-04-22 11:55 9.74107 118.78281 284 ft 150 kts 272°
2026-04-22 11:56 9.74154 118.77213 93 ft 150 kts 272°
2026-04-22 11:56 9.74197 118.76212 52 ft 108 kts 272°
2026-04-22 11:56 9.74218 118.75748 61 ft 22 kts 272°
2026-04-22 11:56 9.74224 118.75611 63 ft 21 kts 272°
2026-04-22 11:57 9.74230 118.75462 65 ft 19 kts 272°
2026-04-22 11:57 9.74237 118.75326 68 ft 17 kts 274°
2026-04-22 11:57 9.74307 118.75255 69 ft 14 kts 357°
2026-04-22 11:57 9.74396 118.75239 70 ft 9 kts 311°
2026-04-22 11:58 9.74408 118.75179 71 ft 8 kts 272°
2026-04-22 11:58 9.74410 118.75117 72 ft 8 kts 272°
2026-04-22 11:58 9.74414 118.75083 72 ft 2 kts 296°
2026-04-22 11:58 9.74434 118.75068 73 ft 4 kts 339°
2026-04-22 11:59 9.74476 118.75063 73 ft 7 kts
2026-04-22 11:59 9.74492 118.75064 73 ft 0 kts
2026-04-22 11:59 9.74498 118.75064 73 ft 0 kts
2026-04-22 11:59 9.74503 118.75064 73 ft 1 kts
2026-04-22 12:00 9.74515 118.75065 73 ft 0 kts